Zurück zum Katalog

COSMOS 1275 DEB

AktivPO
NORAD 42103·DEBRIS·🇷🇺 Russia

Gestartet Jun 4, 1981 von Plesetsk Cosmodrome

Loading…

Nächste Überflüge (nächste 24 Stunden)

TLE

AktuellSource: Space-Track

Epoche: Sep 14, 2026, 05:09 UTC

1 42103U 81053PP  26257.21526139  .00001671  00000-0  82501-3 0  9992
2 42103  83.1729 234.4780 0028928 144.9579 215.3512 14.16678258657519

Verfolge COSMOS 1275 DEB in Echtzeit mit AllMySat

Download on the App Store